カタログに戻る

STARLINK-1351

運用中通信VLEO
NORAD 45697·PAYLOAD·🇺🇸 United States

打ち上げ Jun 4, 2020 から Cape Canaveral Space Force Station

Loading…

次のパス (今後24時間)

TLE

最新Source: CelesTrak SupGP

元期: Sep 15, 2026, 01:20 UTC

1 45697C 20035AS  26258.05604167  .00068752  00000+0  40588-3 0  2586
2 45697  53.0339 170.6051 0005793 102.3948 241.5086 15.77392753    13

AllMySatでSTARLINK-1351をリアルタイム追跡

Download on the App Store